Location: Brno
(49.2000°N, 16.6330°E)
Time: 18:51:02
(UTC+02:00)

Transit 4A - Pass Details

Date: 27 July 2021
Orbit: 871 x 974 km, 66.8° (Epoch: 16 September)

Event Time Altitude Azimuth Distance (km) Brightness Sun altitude
Rises 06:55:26 0° 312° (NW) 3,469 10.6 13.7°
Reaches altitude 10° 06:59:15 10° 337° (NNW) 2,529 10.1 14.3°
Maximum altitude 07:02:19 14° 9° (N) 2,231 10.3 14.7°
Drops below altitude 10° 07:05:24 10° 41° (NE) 2,537 11.2 15.2°
Sets 07:09:14 0° 66° (ENE) 3,487 12.5 15.9°
